User: anonymous   Login
Location: Caltech
(34.1382°N, 118.1253°W)
Time: 00:25:52
(UTC-08:00)
Language:

Cosmos 2219 - Orbit

View from above orbital plane
View from above orbital plane
View from above satellite
View from above satellite

Ground track
Ground track

The orbit data is extracted from the following two-line orbital elements,

1 22219U 92076A   15058.67137568 -.00000056  00000-0 -46982-5 0  9999
2 22219 071.0591 153.3590 0020253 235.2610 124.6605 14.13528085149430
Epoch (UTC): 27 February 2015 16:06:46
Eccentricity: 0.0020253
inclination: 71.0591°
perigee height: 832 km
apogee height: 862 km
right ascension of ascending node: 153.3590°
argument of perigee: 235.2610°
revolutions per day: 14.13528085
mean anomaly at epoch: 124.6605°
orbit number at epoch: 14943

The dashed part of the orbit path shows where the satellite is in the earth's shadow,  

DLR